STARLINK-3856 (52459 NORAD) Tracking and Keplerian Element Data

This shows tracking and keplerian element data for the satellite.

Feedback or suggestion? Click here.




ElementValue
Catalog52459
NameSTARLINK-3856
Epoch Orbit130
Epoch Day192.91667824
Epoch Year2022
RAAN300.6847
Inclination53.2171
Eccentricity0.0001477
Argument of Perigee51.2366
Mean Anonmoly235.674
Mean Motion15.26423781
Decay Rate-0.01068604
L11 52459U 22049J 22192.91667824 -.01068604 00000+0 -44204-1 0 9992
L22 52459 53.2171 300.6847 0001477 51.2366 235.6740 15.26423781 1306

Live tracking and technical data element details for STARLINK-3856 (NORAD 52459). STARLINK-3856 can be tracked NOW for your location showing map with azimuth and elevation plus other details from your city location.

Track the satellite on the map from your city or location and see movement details for azimuth, elevation, latitude, longitude, range, height, and movement on the map or in text.







IsCatalogInMostPopularTable: catalog: 52459, numindb: 5
Update: records affected: 1



GetName: 52459 STARLINK-3856

Hit Count: updated at: Sun, 14 Aug 2022 01:09:03 GMT